Location: Zwardon
(49.5170°N, 18.9830°E)
Time: 16:46:14
(UTC+01:00)

ISS - Visible Passes

Search period start: 11 December 2023 00:00
Search period end: 21 December 2023 00:00
Orbit: 415 x 416 km, 51.6° (Epoch: 11 December)

Date Brightness Start Highest point End Pass type
(mag) Time Alt. Az. Time Alt. Az. Time Alt. Az.
16 Dec -0.6 06:10:55 10° S 06:12:48 14° SE 06:14:41 10° ESE visible
17 Dec -2.4 06:57:06 10° SW 07:00:16 43° SSE 07:03:29 10° ENE visible
18 Dec -1.8 06:08:38 10° SSW 06:11:35 29° SE 06:14:33 10° E visible
19 Dec -1.2 05:20:25 10° S 05:22:55 20° SE 05:25:26 10° E visible
19 Dec -3.6 06:55:56 10° WSW 06:59:16 81° SSE 07:02:37 10° ENE visible
20 Dec -0.7 04:34:20 13° SE 04:34:20 13° SE 04:35:56 10° ESE visible
20 Dec -3.2 06:07:15 11° SW 06:10:27 59° SSE 06:13:45 10° ENE visible
